Wind_Speed
44 46 45 44 42 39 38 37 37 38 38 42 49 48 51 52 55 53 55 55 53 52 49 47 49 49 51 54 55 50 50 50 48 47 50 49 49 49 51 51 51 54 59
41 41 44 43 40 39 38 36 37 39 39 44 48 54 59 55 55 51 55 57 58 56 53 51 54 57 56 55 57 53 56 55 53 51 53 55 53 49 53 55 57 60 63
38 38 40 41 40 38 38 37 38 39 41 42 49 48 56 56 53 54 53 51 50 50 52 54 53 54 56 56 56 57 53 49 50 48 53 55 56 57 58 57 58 59 64
37 35 38 39 39 39 39 38 38 40 41 43 43 55 57 60 60 58 55 54 55 56 53 52 45 46 54 54 57 62 60 59 61 59 58 56 56 57 60 60 62 64 59
40 37 38 39 39 39 39 39 37 40 42 41 41 53 63 62 60 59 61 62 61 56 54 54 55 56 54 60 63 63 68 67 67 69 63 63 65 67 62 56 53 50 49
44 39 40 41 41 41 40 40 40 41 43 45 49 46 51 60 65 69 67 74 71 68 67 68 66 70 68 62 70 71 69 68 69 66 64 64 59 56 51 50 49 49 49
47 43 42 42 43 42 42 42 42 43 43 46 47 53 51 51 50 51 48 47 52 59 65 69 72 72 73 70 72 69 65 62 58 58 57 52 49 49 48 50 51 53 54
48 47 44 45 46 46 45 45 46 46 46 47 48 51 53 55 55 54 52 51 49 47 48 49 50 51 53 54 55 56 56 55 53 51 50 49 49 52 54 56 59 60 62
49 50 49 48 48 48 48 47 47 47 46 49 50 51 53 54 55 57 57 58 57 56 54 53 53 53 52 53 53 53 53 54 53 54 54 55 54 57 61 62 63 68 71
52 51 49 49 51 51 50 48 45 45 47 48 50 51 54 56 56 57 58 58 58 59 60 60 59 58 58 60 59 58 58 58 59 60 60 60 62 64 66 70 72 74 75
53 54 51 49 52 51 52 49 47 48 48 50 51 52 53 55 56 58 60 60 60 59 59 60 61 61 61 60 59 60 61 62 64 65 65 65 67 69 71 73 72 72 71
55 57 55 53 52 54 54 51 50 49 47 47 49 51 53 54 56 59 62 62 62 63 63 63 63 64 64 64 64 65 65 67 69 69 70 73 74 73 72 68 65 63 64
58 57 57 56 56 56 55 51 52 51 50 48 49 49 52 54 55 56 58 61 63 64 64 66 66 67 66 65 65 66 65 66 67 69 68 67 64 63 62 61 63 64 67
62 62 60 60 63 61 57 56 56 56 55 52 53 53 54 53 53 51 51 52 54 58 62 64 63 61 61 61 60 60 59 60 60 60 59 59 62 64 66 69 70 72 72
60 60 57 58 60 62 63 63 60 59 59 57 55 54 55 54 54 52 51 50 49 49 48 48 49 50 52 54 55 56 58 60 62 63 65 68 69 71 73 74 76 77 79
62 61 59 60 68 70 71 71 67 65 62 61 61 60 58 58 55 56 57 54 53 54 55 55 56 57 57 59 60 61 63 64 66 69 71 73 74 77 79 81 83 86 88
67 64 58 60 71 74 73 75 71 69 64 62 64 68 66 60 60 56 61 63 59 57 59 62 63 64 65 65 66 68 70 71 73 75 77 79 82 85 87 89 92 94 96
79 71 67 74 77 79 74 72 73 72 69 69 67 64 66 65 62 64 62 66 68 67 70 71 70 71 71 72 73 74 76 78 79 82 84 86 89 91 94 96 98 101 103
84 79 78 82 86 79 75 75 76 78 76 76 73 69 70 76 75 72 70 69 75 80 81 80 79 79 80 80 81 82 83 85 87 90 92 94 97 98 101 104 106 108 111
89 87 85 86 87 86 84 80 80 82 85 84 80 80 79 79 79 78 77 75 77 80 83 85 87 87 87 87 89 90 92 93 96 98 100 102 104 107 109 110 113 116 118
92 91 91 91 92 91 89 85 85 87 89 91 91 90 88 87 85 85 87 85 85 86 88 90 93 94 95 96 97 98 100 102 104 106 108 110 112 113 116 117 119 122 123
95 94 95 95 99 96 94 92 92 91 93 95 98 100 101 99 95 94 94 94 93 95 98 99 101 102 103 104 106 108 109 111 112 114 114 116 118 119 122 124 124 124 126
101 99 99 99 100 99 100 99 98 98 100 100 102 105 108 107 105 102 101 100 102 103 105 106 107 107 108 109 110 112 115 116 117 119 120 120 122 126 126 126 128 131 134
105 104 104 105 104 103 104 103 103 103 105 104 106 108 108 113 113 112 109 108 110 109 110 111 112 114 114 115 116 118 119 121 122 123 124 127 129 130 131 132 134 135 134
110 110 110 108 107 108 108 107 106 105 106 108 110 112 114 115 118 120 118 118 117 117 116 117 118 118 119 119 120 122 124 124 126 127 129 130 132 132 135 135 137 137 137
113 113 114 114 113 113 111 112 112 113 113 112 112 113 115 116 118 120 122 123 122 120 120 120 121 121 123 126 126 128 130 130 133 133 132 135 135 133 136 139 141 135 132
Wind_Direction
258 258 256 254 256 257 258 255 253 249 246 233 230 227 235 237 238 244 248 244 245 249 248 251 253 257 262 268 271 270 270 272 275 271 270 271 274 278 282 281 283 284 286
255 258 255 253 254 256 255 253 251 247 246 239 229 231 234 238 243 248 249 248 247 245 246 251 256 262 268 270 268 273 275 274 276 274 272 277 280 282 283 284 286 283 284
255 255 252 252 253 254 252 250 248 246 243 240 236 232 230 236 243 246 252 252 253 254 256 256 260 268 272 269 275 280 278 278 282 284 286 286 284 283 285 286 287 286 287
249 254 251 250 249 251 252 250 244 241 241 240 237 227 228 237 240 250 253 253 249 255 259 263 265 264 270 276 279 279 284 285 290 289 287 285 287 289 290 288 287 287 285
248 250 250 249 248 249 251 251 246 242 238 236 235 232 230 235 239 241 246 253 258 258 256 257 262 263 261 264 275 274 277 282 287 289 287 284 286 288 289 285 283 283 286
249 249 249 248 249 249 249 252 251 246 241 240 237 236 235 238 243 245 249 249 252 255 257 259 260 263 268 267 269 272 275 281 280 282 283 285 284 285 284 284 286 286 288
246 247 248 249 249 249 250 253 254 253 249 243 243 244 245 244 244 245 248 250 251 254 256 258 259 260 260 264 266 268 272 273 273 275 279 283 284 285 286 287 288 287 287
244 246 248 249 248 249 251 254 254 254 253 251 248 246 249 250 250 248 249 249 251 253 254 255 258 260 260 262 265 267 267 270 272 275 275 277 279 281 282 282 284 286 289
245 246 247 249 248 249 254 257 256 254 253 251 251 251 251 251 252 252 252 252 252 253 256 258 260 261 263 264 266 269 270 271 270 270 273 275 276 276 276 279 281 286 289
244 246 248 251 250 251 255 257 254 253 253 252 252 251 253 255 255 256 254 253 254 256 257 258 261 263 266 268 270 270 271 272 272 273 274 275 276 278 279 282 284 286 287
242 246 248 251 251 252 255 255 252 254 253 253 252 252 252 254 256 258 258 257 257 257 259 261 262 263 265 266 268 269 271 271 272 273 274 274 275 278 279 281 282 283 284
243 247 250 255 252 255 255 256 255 253 253 254 255 256 257 257 257 258 258 259 259 258 259 259 261 264 266 268 270 270 271 272 274 276 276 277 278 278 279 279 280 281 282
251 251 254 257 255 253 255 253 251 253 254 254 256 258 259 260 259 261 262 262 261 262 263 264 265 265 266 269 270 271 273 273 274 275 276 276 278 279 281 281 281 282 284
248 251 252 254 256 251 248 249 250 252 251 254 259 260 262 260 259 261 263 265 267 267 267 266 266 267 268 269 269 269 269 270 271 272 272 273 275 277 279 281 283 285 288
249 253 253 251 252 250 249 251 251 250 252 255 258 259 263 258 258 260 260 261 262 263 264 264 265 266 267 267 267 268 269 269 270 271 272 275 277 279 280 282 284 286 286
246 248 250 255 252 250 252 252 250 249 255 257 257 260 259 259 260 262 260 259 261 262 263 264 265 266 267 268 269 271 271 272 273 276 277 279 281 282 283 284 286 287 288
244 245 245 243 252 253 255 255 253 251 254 259 261 263 257 257 262 267 264 262 263 265 268 268 269 268 268 269 271 272 273 274 276 277 278 280 282 283 285 286 287 288 289
245 243 242 236 243 254 255 255 255 256 258 263 261 265 253 253 262 266 267 263 262 269 274 273 272 271 271 272 272 273 274 275 276 278 280 281 283 284 284 287 288 288 288
244 245 244 248 250 254 259 259 260 261 260 261 262 260 257 260 265 266 262 264 264 267 272 272 272 272 272 273 274 275 276 277 278 280 281 283 283 285 285 286 287 289 289
245 246 247 248 251 253 256 258 260 263 267 266 263 263 262 263 264 265 264 264 265 267 270 273 273 274 273 274 275 277 278 280 280 281 282 283 284 285 287 289 289 289 291
247 248 249 249 250 252 255 257 259 263 266 268 270 269 269 268 268 270 271 271 271 272 271 272 273 274 275 276 277 279 280 281 282 283 285 286 287 288 290 291 290 291 291
243 246 248 249 250 253 255 256 257 259 261 264 267 269 268 269 270 270 271 272 272 273 274 274 275 277 279 280 281 282 284 285 286 286 288 288 289 290 290 289 290 290 291
244 245 246 249 251 253 254 256 257 259 260 262 264 267 270 272 271 270 270 271 271 272 274 275 276 277 279 281 282 282 283 284 285 286 287 288 288 288 289 289 290 290 290
244 246 247 248 250 252 254 256 258 259 261 263 264 267 269 272 273 273 272 272 273 274 274 276 277 277 279 280 281 282 283 283 284 285 287 287 287 289 290 291 289 293 293
245 246 247 249 250 251 252 253 255 257 259 260 262 263 265 266 270 272 275 276 275 276 277 277 278 279 280 280 281 282 284 285 286 287 287 289 290 291 293 295 293 296 296
245 247 248 249 250 251 253 255 256 257 257 259 261 262 265 267 269 271 273 275 277 277 277 278 280 281 281 282 284 284 286 287 287 289 290 290 292 295 294 297 297 298 297
Height
10784 10786 10788 10793 10795 10798 10800 10803 10805 10808 10811 10816 10819 10822 10827 10831 10832 10837 10840 10843 10845 10846 10849 10850 10850 10851 10852 10854 10855 10855 10855 10854 10857 10859 10857 10857 10857 10856 10855 10852 10851 10849 10845
10775 10777 10780 10784 10787 10790 10793 10796 10798 10801 10805 10808 10813 10816 10819 10822 10825 10830 10831 10835 10837 10840 10842 10842 10844 10843 10842 10843 10846 10846 10845 10846 10848 10848 10849 10848 10848 10846 10844 10843 10841 10838 10835
10767 10769 10772 10775 10780 10783 10785 10789 10791 10795 10797 10801 10803 10807 10810 10813 10816 10819 10822 10825 10829 10831 10834 10835 10837 10835 10832 10833 10833 10830 10834 10834 10835 10838 10838 10837 10837 10836 10834 10832 10830 10828 10825
10758 10761 10764 10767 10771 10774 10777 10780 10784 10788 10790 10793 10795 10799 10803 10806 10808 10811 10813 10817 10821 10823 10825 10827 10829 10827 10821 10822 10821 10816 10820 10821 10822 10825 10826 10825 10824 10823 10821 10820 10818 10817 10813
10749 10752 10755 10759 10761 10764 10768 10771 10775 10779 10783 10786 10788 10791 10795 10797 10800 10803 10806 10806 10809 10812 10815 10817 10819 10820 10819 10818 10813 10811 10810 10811 10809 10810 10814 10813 10811 10811 10808 10807 10805 10804 10802
10740 10743 10746 10749 10753 10756 10758 10762 10765 10769 10774 10778 10781 10783 10785 10788 10791 10794 10797 10799 10801 10804 10807 10807 10808 10808 10808 10812 10807 10802 10799 10802 10801 10796 10796 10799 10797 10795 10793 10793 10792 10791 10790
10729 10733 10737 10740 10743 10746 10750 10753 10756 10760 10764 10767 10771 10773 10776 10779 10781 10783 10785 10787 10790 10792 10795 10796 10796 10797 10797 10798 10800 10797 10794 10793 10791 10789 10788 10785 10786 10781 10780 10779 10778 10777 10776
10719 10724 10727 10730 10733 10736 10741 10744 10746 10749 10753 10756 10760 10762 10765 10769 10771 10774 10776 10778 10779 10781 10783 10784 10784 10785 10786 10785 10785 10784 10784 10782 10780 10779 10779 10777 10776 10772 10769 10768 10765 10763 10762
10709 10713 10717 10721 10723 10727 10731 10734 10736 10739 10743 10745 10747 10750 10754 10757 10760 10761 10765 10768 10770 10770 10772 10773 10774 10774 10774 10774 10774 10772 10772 10772 10771 10769 10768 10768 10768 10765 10761 10758 10756 10753 10750
10698 10704 10707 10711 10714 10717 10720 10723 10727 10730 10732 10735 10737 10741 10743 10744 10747 10750 10752 10756 10758 10758 10760 10761 10763 10762 10762 10761 10762 10761 10761 10760 10759 10758 10757 10757 10755 10752 10749 10745 10742 10740 10737
10689 10693 10697 10699 10703 10706 10708 10712 10717 10720 10721 10724 10727 10728 10732 10735 10736 10737 10739 10743 10745 10747 10747 10748 10750 10751 10751 10750 10750 10749 10748 10747 10744 10743 10743 10742 10741 10739 10736 10732 10728 10726 10720
10677 10681 10685 10688 10693 10696 10698 10702 10706 10708 10711 10714 10716 10718 10720 10723 10725 10726 10726 10728 10731 10733 10735 10737 10738 10738 10738 10737 10736 10735 10734 10732 10730 10728 10727 10726 10725 10723 10720 10717 10714 10711 10708
10666 10670 10674 10677 10682 10685 10688 10691 10693 10697 10700 10703 10706 10708 10709 10711 10712 10713 10714 10716 10718 10719 10721 10722 10723 10724 10724 10723 10722 10721 10720 10717 10715 10713 10712 10709 10707 10705 10703 10701 10698 10696 10692
10652 10655 10661 10665 10668 10671 10675 10678 10682 10684 10688 10692 10694 10696 10698 10699 10701 10702 10703 10704 10705 10706 10707 10708 10708 10709 10709 10709 10708 10707 10706 10704 10702 10700 10698 10696 10694 10691 10688 10685 10682 10678 10676
10640 10642 10647 10651 10654 10657 10661 10665 10669 10671 10676 10680 10682 10684 10686 10687 10689 10691 10692 10693 10694 10694 10695 10695 10696 10696 10696 10695 10695 10694 10693 10691 10689 10686 10684 10682 10679 10675 10672 10669 10666 10663 10659
10628 10630 10634 10636 10637 10642 10645 10650 10655 10659 10663 10667 10669 10672 10674 10676 10677 10678 10680 10680 10681 10681 10682 10683 10683 10682 10682 10681 10680 10680 10678 10676 10673 10671 10668 10665 10662 10658 10654 10651 10648 10643 10638
10613 10620 10622 10617 10617 10623 10629 10634 10640 10645 10649 10652 10655 10656 10660 10662 10664 10665 10667 10668 10668 10667 10668 10668 10668 10667 10667 10666 10664 10663 10661 10659 10657 10653 10650 10647 10643 10639 10635 10631 10626 10622 10617
10595 10606 10609 10603 10602 10608 10614 10618 10622 10628 10633 10635 10639 10640 10643 10646 10648 10650 10651 10653 10654 10652 10652 10651 10652 10651 10650 10649 10647 10644 10642 10640 10638 10634 10631 10627 10623 10619 10614 10610 10605 10599 10593
10579 10587 10592 10591 10590 10595 10599 10603 10606 10607 10613 10618 10622 10625 10627 10629 10632 10634 10636 10636 10637 10635 10634 10633 10633 10632 10631 10629 10627 10625 10622 10620 10617 10613 10610 10606 10602 10597 10592 10587 10580 10574 10567
10564 10570 10574 10574 10576 10581 10582 10586 10588 10589 10588 10593 10601 10605 10608 10610 10612 10614 10615 10618 10618 10618 10616 10614 10612 10611 10609 10608 10605 10603 10600 10597 10594 10590 10587 10582 10578 10572 10567 10561 10555 10546 10538
10545 10551 10555 10557 10559 10563 10566 10571 10572 10571 10571 10571 10572 10578 10583 10585 10590 10594 10593 10597 10598 10597 10595 10594 10591 10589 10587 10584 10582 10579 10575 10571 10568 10565 10562 10557 10552 10545 10540 10532 10524 10517 10508
10529 10531 10535 10537 10538 10544 10549 10554 10556 10558 10558 10556 10552 10550 10551 10560 10567 10572 10573 10573 10575 10572 10570 10569 10566 10564 10561 10559 10556 10552 10549 10544 10541 10537 10533 10528 10522 10515 10510 10502 10495 10485 10476
10509 10514 10517 10520 10521 10525 10528 10533 10536 10537 10537 10539 10537 10533 10528 10532 10537 10546 10548 10549 10548 10547 10546 10543 10542 10540 10537 10534 10530 10525 10521 10517 10514 10509 10504 10500 10494 10484 10480 10471 10462 10451 10441
10487 10492 10495 10500 10503 10507 10510 10513 10515 10516 10514 10517 10516 10513 10513 10506 10504 10508 10516 10522 10522 10523 10521 10519 10516 10514 10510 10507 10502 10498 10495 10489 10485 10481 10475 10466 10460 10451 10445 10439 10424 10416 10406
10464 10468 10471 10476 10480 10484 10487 10491 10493 10494 10494 10493 10493 10492 10491 10489 10482 10480 10482 10486 10491 10491 10491 10490 10487 10485 10482 10477 10473 10469 10465 10460 10455 10451 10444 10435 10426 10417 10406 10397 10385 10378 10366
10439 10443 10447 10451 10456 10460 10463 10465 10469 10469 10471 10472 10472 10471 10468 10464 10462 10459 10455 10453 10455 10458 10458 10459 10459 10454 10449 10445 10441 10437 10432 10428 10421 10417 10410 10404 10393 10387 10372 10358 10344 10336 10326